Dewpoint
16 16 16 16 16 16 17 15 13 11 10 8 6 7 7 5 5 3 2 1 1 1 1 4 4 6 4 -2 -1 -3 0 1 -3 -0 3 4 5 3 5 3 7 10 12 17 21 20 21 22 22 22 23 24 24 24 26 27 27 27 27 27 28 28 26 26 26 26 25 24 22 24 31 36 34 37 39 39 38 37 33 32 30 26 25 26 24
16 16 16 15 16 18 17 16 16 12 11 9 9 7 6 5 4 2 2 1 1 0 3 3 4 7 4 2 -1 -1 -1 -2 -0 -1 2 2 4 5 6 5 6 6 9 14 15 17 19 20 22 21 21 22 23 24 25 26 26 26 28 26 28 27 24 25 27 26 24 23 21 21 22 25 39 38 39 39 39 39 37 33 32 29 26 26 25
16 16 16 16 16 16 16 15 13 12 11 10 9 7 7 7 6 5 5 5 3 2 5 3 -0 4 3 2 -0 -0 -1 -1 -1 4 2 3 2 5 5 5 5 4 5 7 11 13 15 18 20 20 21 23 22 22 23 25 24 26 27 27 24 26 27 28 28 28 21 21 23 22 19 17 23 37 38 39 39 39 39 36 33 30 29 27 26
16 15 14 13 13 13 14 14 13 13 11 9 7 6 4 5 5 5 6 6 6 6 7 6 5 4 7 8 6 3 1 5 2 1 3 1 3 3 4 4 4 4 5 6 10 12 14 16 17 19 20 22 21 21 21 21 23 24 25 26 27 25 25 25 29 31 28 21 18 19 19 17 17 17 24 33 38 38 38 38 35 33 32 27 26
15 12 10 9 8 8 9 11 12 11 11 8 7 5 2 3 5 6 5 6 7 7 6 7 7 8 8 9 9 8 6 5 2 2 1 3 4 3 2 3 4 3 4 6 8 12 15 15 16 17 19 21 20 19 18 19 20 22 24 25 24 25 26 26 28 30 30 29 23 19 18 19 22 23 30 29 37 36 37 38 37 35 33 29 27
10 11 10 10 7 7 8 10 9 8 6 5 3 3 4 4 3 3 3 6 7 7 7 6 6 6 5 5 5 3 3 3 2 2 3 0 -0 1 3 1 1 0 -0 3 8 13 15 17 18 17 17 20 21 19 18 17 19 20 20 23 24 25 27 27 27 28 30 30 29 27 21 18 26 30 28 30 30 35 34 36 36 36 34 33 32
8 8 8 3 4 6 6 3 -0 -1 -2 -1 0 3 4 4 5 4 4 3 4 6 8 7 7 4 3 3 4 5 4 5 1 1 2 0 5 2 3 1 1 -2 -4 -2 7 13 15 17 18 19 17 19 20 19 19 20 19 20 21 21 22 23 25 25 26 26 27 28 30 29 29 30 30 26 20 21 24 28 32 32 33 35 35 34 34
0 -1 -1 2 1 -2 -3 -1 -1 0 4 6 5 5 5 4 5 6 6 7 6 7 7 8 8 7 7 6 5 6 4 3 2 1 2 4 3 1 1 -0 -0 -2 -3 -4 5 11 13 14 15 17 18 19 20 21 20 19 20 22 23 22 21 20 23 23 23 23 24 26 26 26 27 28 30 31 30 27 28 27 28 29 31 31 32 34 33
-3 1 1 -1 -2 -2 2 4 4 5 7 7 5 5 5 5 7 7 7 7 7 7 7 6 7 8 6 6 7 7 5 6 6 6 4 4 1 -0 -1 -1 -1 -2 -3 -3 4 10 11 12 14 15 15 18 19 21 20 20 19 16 17 16 17 16 17 22 22 21 23 24 27 27 28 28 28 29 29 29 27 27 24 23 24 28 30 31 32
-0 2 -0 -1 0 2 4 4 6 7 9 9 8 8 9 10 11 11 10 10 9 8 8 8 7 6 7 7 8 7 6 5 5 3 3 3 0 1 -1 -1 -0 -2 -3 -2 2 6 8 15 16 16 15 15 19 19 19 18 17 16 15 13 12 11 12 16 19 18 20 20 22 26 27 27 28 28 28 28 28 28 25 24 24 26 27 28 30
2 0 -2 -1 1 2 3 4 5 6 6 4 5 5 5 7 7 4 3 5 10 11 10 10 8 6 7 9 8 6 6 5 4 4 3 2 0 -0 -0 -1 -1 -2 -1 -3 1 4 13 17 17 16 15 17 18 18 17 15 12 12 11 9 6 5 6 9 16 19 18 18 21 21 23 26 26 25 25 26 26 24 23 24 25 26 25 25 27
-0 -3 -4 -1 -1 3 4 4 3 3 2 -2 -1 -3 -1 -3 -4 -2 -1 -1 0 10 12 12 12 11 9 8 6 5 5 5 4 4 3 3 2 0 -0 0 -2 -1 -3 -1 1 5 12 12 16 14 16 17 15 15 12 9 6 4 3 3 3 4 4 7 14 13 19 17 19 17 19 22 25 27 27 26 24 22 23 23 21 23 25 26 27
-5 -7 -1 2 2 3 4 3 -2 -3 -3 -4 -4 -3 -3 -1 -1 -0 1 2 8 11 10 9 9 9 9 8 7 7 7 6 5 4 4 2 1 -1 -2 -3 -3 -3 -6 -6 1 5 8 10 12 12 9 8 9 7 7 8 4 3 3 3 4 4 6 10 9 14 15 17 14 15 17 20 21 24 27 28 28 29 26 22 24 22 22 23 25
-9 -3 3 3 4 4 2 -1 -3 -4 -4 -6 -4 -0 -0 -1 0 3 6 10 10 10 9 9 8 8 8 8 7 5 4 4 3 2 0 -1 -1 -2 -3 -4 -4 -4 -5 -3 0 5 7 7 9 9 10 9 7 5 4 3 4 3 3 2 2 3 4 4 8 8 12 14 15 14 16 18 21 23 24 27 28 28 27 27 25 24 23 23 24
-8 0 1 2 4 1 -0 -2 -3 -3 -4 -6 -5 -3 -3 -4 -3 -4 -0 9 7 5 4 4 5 6 5 4 4 3 2 2 0 1 -2 -3 -4 -4 -4 -3 -3 -5 -3 2 7 7 4 3 6 8 7 7 7 7 7 5 4 3 4 3 3 3 3 4 5 6 14 15 16 15 17 16 17 19 22 25 27 28 28 28 25 23 22 23 23
-2 1 1 2 1 -1 -2 -2 -2 -4 -5 -6 -6 -3 -3 -6 -5 -3 -2 -1 1 2 -1 -1 0 1 2 1 1 1 1 -1 -1 -2 -5 -5 -4 -4 -3 -2 -1 0 1 -0 -2 -2 2 2 2 3 2 1 0 2 4 5 5 5 7 5 4 10 5 4 5 5 7 10 14 17 19 18 17 17 22 23 25 28 29 29 29 26 23 21 22
1 -1 -1 -1 -3 -6 -4 -3 -4 -5 -7 -7 -6 -6 -6 -6 -6 -5 -4 -4 -4 -2 -1 -1 -1 -3 -2 -3 -3 -2 -3 -5 -7 -8 -7 -3 -2 -2 -2 -0 1 -1 -1 -0 -1 -0 1 1 -1 -1 -1 -1 -2 -0 1 1 3 4 4 6 5 5 6 5 5 5 6 8 10 15 18 19 19 18 19 24 25 27 29 29 29 28 27 23 20
-1 -3 -5 -6 -7 -4 -5 -4 -6 -7 -8 -7 -7 -6 -6 -5 -5 -4 -4 -3 -3 -4 -4 -5 -7 -6 -6 -6 -4 -4 -4 -5 -6 -4 -5 -5 -4 -6 -7 -5 -2 -3 -4 -5 -5 -5 -3 -0 -3 -3 1 -3 -3 -3 -2 -1 2 3 3 4 4 4 7 7 6 6 6 7 10 14 18 18 21 21 20 24 25 26 27 29 29 29 29 26 24
-3 -5 -7 -7 -6 -4 -6 -7 -9 -8 -6 -7 -6 -6 -7 -5 -3 -5 -6 -7 -7 -7 -6 -7 -7 -8 -7 -3 -3 -3 -3 -3 -3 -3 -5 -6 -7 -9 -9 -8 -6 -5 -4 -5 -6 -6 -7 -7 -7 -7 -6 -7 -6 -6 -5 -4 -1 2 3 3 3 3 4 5 6 7 8 8 10 14 17 17 20 22 23 24 25 26 26 27 28 29 29 29 27
-5 -7 -8 -7 -4 -6 -7 -10 -10 -9 -7 -8 -9 -9 -10 -9 -8 -7 -7 -8 -9 -8 -6 -6 -5 -5 -5 -4 -4 -4 -3 -4 -4 -5 -6 -7 -9 -10 -10 -10 -9 -7 -8 -9 -9 -9 -9 -9 -9 -9 -9 -8 -9 -8 -7 -7 -5 -1 2 2 2 3 3 4 5 6 12 14 15 17 18 18 19 21 22 24 25 26 27 27 28 29 29 30 29
-7 -6 -8 -6 -6 -7 -9 -11 -9 -9 -8 -10 -12 -12 -11 -10 -10 -9 -10 -9 -8 -8 -7 -8 -7 -7 -5 -7 -6 -6 -6 -6 -7 -7 -7 -8 -8 -7 -9 -10 -9 -10 -10 -10 -10 -10 -10 -10 -10 -8 -9 -10 -10 -10 -10 -10 -8 -2 2 3 3 3 3 4 6 7 8 11 17 18 19 20 22 22 21 23 24 25 27 27 28 29 29 29 29
-7 -8 -9 -6 -8 -10 -12 -11 -10 -11 -13 -14 -14 -14 -12 -11 -11 -11 -11 -11 -10 -9 -9 -9 -8 -8 -8 -8 -8 -8 -8 -8 -7 -7 -6 -7 -7 -8 -8 -7 -8 -8 -9 -9 -9 -9 -9 -9 -9 -8 -8 -7 -8 -6 -7 -8 -8 -6 -5 -4 2 5 6 6 7 8 9 14 15 16 18 20 21 22 23 23 24 25 26 26 27 28 28 29 29
-7 -8 -8 -8 -9 -11 -12 -11 -12 -13 -14 -14 -14 -12 -12 -12 -11 -11 -11 -11 -11 -10 -10 -9 -9 -9 -8 -8 -8 -8 -8 -7 -7 -7 -7 -7 -7 -6 -5 -5 -6 -6 -7 -7 -8 -8 -7 -7 -7 -7 -2 -4 -4 -4 -3 -3 -3 -4 -4 -4 -2 -0 4 8 9 10 13 16 17 18 19 20 20 21 22 23 24 25 26 27 27 28 29 29 29
-8 -9 -8 -8 -10 -11 -12 -12 -12 -14 -15 -15 -13 -12 -12 -11 -11 -12 -12 -12 -11 -11 -10 -10 -9 -9 -9 -8 -8 -7 -7 -7 -7 -6 -6 -6 -6 -5 -4 -4 -5 -6 -6 -6 -6 -6 -6 -6 -6 -5 -4 -3 -4 1 4 5 3 1 -0 -1 -1 1 3 7 10 15 16 16 18 18 18 19 20 21 22 22 23 24 25 26 27 28 29 29 29
-9 -9 -8 -9 -11 -12 -14 -13 -13 -14 -14 -14 -12 -12 -12 -11 -12 -12 -12 -12 -11 -10 -10 -10 -9 -9 -9 -8 -8 -7 -7 -6 -6 -5 -5 -4 -4 -3 -3 -4 -4 -4 -4 -5 -5 -5 -5 -5 -6 -5 -5 -5 -4 -1 1 4 5 3 2 3 5 6 7 10 14 18 19 19 19 20 20 21 23 22 22 22 22 24 25 25 26 27 28 29 29
-9 -9 -9 -10 -11 -13 -15 -13 -13 -14 -14 -13 -12 -11 -12 -12 -13 -13 -12 -12 -11 -10 -10 -9 -9 -9 -8 -8 -7 -7 -6 -6 -5 -4 -3 -2 -2 -2 -2 -2 -3 -4 -4 -3 -4 -4 -4 -4 -4 -3 -3 -2 -1 3 6 8 7 7 6 9 10 11 12 15 16 15 15 17 18 18 19 20 20 21 23 23 23 24 25 26 26 27 28 28 28
-9 -8 -9 -11 -12 -14 -15 -14 -13 -13 -13 -13 -13 -12 -13 -13 -13 -13 -12 -12 -11 -10 -10 -10 -9 -9 -8 -8 -7 -6 -6 -5 -4 -3 -2 -1 -1 -1 -1 -1 -1 -1 -1 -2 -1 -2 -1 -1 -1 -1 -2 -1 0 2 2 2 4 4 6 8 8 8 8 11 12 13 14 15 17 18 19 20 20 21 22 24 25 25 26 27 27 27 28 28 28
-8 -9 -10 -11 -13 -15 -15 -15 -13 -13 -13 -13 -13 -13 -13 -13 -13 -13 -12 -12 -11 -10 -10 -9 -9 -8 -8 -7 -6 -5 -5 -3 -3 -2 -1 -1 0 0 1 1 2 1 1 0 1 0 -0 0 0 0 1 1 1 3 3 3 5 6 6 7 7 7 7 7 8 9 12 13 14 15 18 20 20 21 21 22 24 24 25 26 27 28 28 28 28
-9 -9 -11 -12 -13 -15 -15 -15 -14 -13 -13 -13 -13 -13 -13 -13 -13 -13 -12 -12 -11 -10 -10 -10 -9 -8 -7 -7 -5 -4 -4 -3 -3 -2 -1 0 1 1 2 3 3 3 4 3 4 4 4 3 3 3 2 5 5 5 5 4 5 6 7 8 7 6 6 6 7 8 10 12 13 14 16 17 18 19 20 22 24 26 25 25 27 29 29 28 28
-9 -10 -11 -12 -13 -14 -14 -15 -14 -13 -13 -13 -13 -13 -13 -13 -13 -12 -12 -11 -10 -10 -10 -10 -9 -8 -7 -6 -4 -4 -3 -3 -2 -1 -0 1 3 3 4 4 4 4 6 6 6 6 7 6 5 5 6 6 6 6 8 13 13 8 8 8 7 6 5 6 6 6 7 9 11 13 14 17 19 20 21 22 24 25 28 28 27 29 29 28 28
-10 -11 -11 -12 -13 -13 -14 -14 -13 -13 -13 -13 -13 -13 -13 -13 -12 -12 -12 -12 -11 -11 -11 -10 -9 -8 -7 -6 -5 -4 -3 -3 -1 1 2 2 2 3 4 4 4 5 6 6 6 7 7 7 7 7 7 7 8 8 14 16 17 18 14 11 10 9 8 6 6 6 6 6 8 12 14 15 16 17 19 21 23 25 26 28 29 29 29 29 28
-9 -11 -11 -13 -13 -14 -14 -13 -13 -13 -14 -13 -13 -13 -13 -12 -12 -12 -12 -11 -11 -11 -11 -10 -9 -8 -6 -6 -5 -4 -3 -2 -0 1 2 3 3 3 4 5 5 5 6 7 6 7 8 8 8 9 8 8 8 13 17 17 19 19 18 14 13 12 12 11 10 8 7 6 7 9 12 15 17 18 20 22 24 25 26 28 29 29 30 30 30
-10 -11 -11 -13 -14 -14 -13 -13 -13 -14 -14 -14 -13 -13 -13 -12 -12 -13 -12 -12 -12 -11 -10 -9 -8 -8 -7 -6 -5 -3 -2 -1 0 1 2 3 3 3 4 4 5 6 6 7 7 7 8 8 9 9 9 10 10 15 17 19 20 20 20 18 15 15 13 12 13 13 12 10 8 8 11 13 16 17 18 22 25 26 27 28 29 30 30 30 30
-10 -11 -12 -13 -13 -13 -13 -13 -14 -14 -14 -13 -13 -13 -12 -13 -13 -12 -12 -12 -11 -11 -10 -9 -8 -7 -7 -6 -3 -2 -2 -1 -1 0 1 2 3 3 4 5 6 7 7 7 7 8 8 9 9 9 10 10 11 15 18 19 20 21 21 20 17 17 16 15 14 14 14 14 13 12 10 12 16 17 17 20 23 26 26 27 29 29 29 30 30
-11 -11 -12 -14 -13 -13 -13 -14 -14 -13 -14 -13 -13 -13 -13 -13 -13 -13 -13 -12 -11 -11 -9 -9 -8 -7 -6 -5 -3 -3 -2 -2 -1 0 1 2 3 3 4 5 6 6 7 7 8 8 9 10 10 10 10 11 11 17 19 20 21 22 22 21 19 18 18 17 16 16 16 16 15 14 13 12 15 16 17 19 22 25 26 26 27 28 29 29 29
-10 -12 -12 -12 -12 -12 -14 -14 -13 -14 -14 -14 -14 -14 -14 -13 -13 -13 -12 -11 -11 -10 -10 -9 -8 -7 -6 -5 -4 -3 -2 -1 -1 0 1 2 3 4 5 6 6 7 8 8 9 9 10 10 11 12 11 11 12 18 20 21 22 23 23 21 21 20 19 19 18 18 17 17 17 17 16 15 16 16 18 19 20 25 26 26 26 27 27 28 29
-12 -12 -12 -12 -12 -13 -14 -14 -14 -14 -14 -14 -14 -13 -13 -13 -13 -13 -11 -11 -11 -10 -10 -9 -7 -7 -6 -4 -3 -3 -2 -2 -1 -0 1 2 3 4 5 6 7 8 8 8 9 10 11 11 12 12 12 12 13 16 20 21 22 23 23 21 22 22 21 21 20 19 19 19 18 18 18 17 17 17 19 20 20 23 25 26 26 27 27 27 27
-11 -11 -11 -12 -13 -14 -14 -14 -15 -15 -15 -14 -14 -13 -13 -13 -12 -12 -12 -11 -11 -10 -9 -8 -8 -7 -5 -4 -3 -2 -1 -1 -0 0 1 2 3 5 6 7 7 8 8 9 10 10 11 12 12 12 13 13 14 16 21 22 23 24 23 22 22 22 23 22 22 21 21 20 20 21 20 19 19 19 20 21 21 23 25 26 26 26 26 27 27
-12 -11 -12 -13 -14 -14 -14 -14 -14 -14 -14 -14 -14 -13 -12 -12 -12 -12 -11 -11 -10 -10 -9 -8 -7 -6 -4 -3 -3 -2 -1 -1 -0 1 2 3 4 5 7 8 8 9 9 10 11 11 12 13 14 14 16 16 16 17 20 22 23 23 23 23 22 21 21 22 23 22 22 21 21 21 22 21 20 20 22 22 22 22 25 26 26 26 26 26 27
-12 -12 -12 -13 -14 -14 -14 -14 -15 -15 -14 -14 -13 -13 -12 -12 -12 -12 -11 -9 -9 -9 -9 -8 -6 -5 -4 -3 -2 -1 -1 -0 0 1 3 3 5 6 8 8 9 10 10 10 11 13 13 14 15 16 16 17 17 17 19 22 23 24 23 22 21 21 21 21 22 23 22 22 22 21 22 24 24 24 23 23 22 23 25 26 27 26 26 25 27
-11 -12 -9 -14 -14 -13 -15 -15 -14 -14 -14 -14 -13 -12 -11 -11 -12 -11 -11 -10 -10 -9 -8 -7 -5 -5 -4 -4 -2 -1 -1 -0 1 1 3 4 6 7 8 9 10 11 11 12 13 14 15 16 17 18 19 20 20 20 20 23 24 25 24 23 21 21 21 20 20 21 22 23 22 22 22 23 24 24 25 25 24 24 23 26 27 27 27 27 27
-9 -10 -12 -14 -14 -14 -15 -14 -14 -14 -14 -14 -13 -12 -12 -11 -11 -11 -10 -11 -9 -8 -6 -6 -5 -5 -4 -3 -2 -1 -0 0 1 3 4 5 6 8 9 10 10 11 13 14 15 16 16 18 19 21 22 22 23 23 23 24 25 25 25 25 23 23 22 21 20 19 20 22 23 23 23 23 24 25 25 25 25 25 24 24 26 28 28 27 26
-13 -13 -14 -14 -14 -14 -14 -15 -13 -14 -14 -14 -13 -12 -11 -11 -11 -11 -11 -9 -7 -7 -7 -7 -6 -5 -4 -3 -2 -1 -1 0 2 3 4 5 6 8 9 11 11 12 13 14 15 17 17 18 19 21 22 23 24 23 24 24 24 24 24 24 24 24 25 24 22 21 21 21 22 23 24 25 25 25 26 26 26 26 25 25 26 27 28 28 27
-12 -12 -13 -14 -14 -14 -14 -13 -14 -14 -14 -13 -12 -12 -11 -11 -11 -11 -8 -7 -7 -8 -7 -6 -5 -5 -4 -3 -2 -1 -0 1 2 3 4 5 6 7 9 10 11 12 13 13 14 15 16 17 18 18 20 21 22 23 23 24 24 24 24 24 24 23 23 23 23 23 22 21 21 22 23 24 25 26 27 26 26 25 24 25 26 26 26 27 26
-12 -13 -14 -13 -13 -14 -13 -13 -15 -15 -15 -12 -11 -11 -11 -11 -10 -8 -8 -8 -8 -7 -6 -6 -5 -4 -4 -3 -2 -1 -0 1 3 3 3 4 6 7 7 9 11 12 13 12 14 14 14 15 16 18 18 19 20 20 20 21 23 22 23 23 23 22 22 22 21 22 24 24 23 23 23 24 25 25 26 27 26 25 25 25 25 25 26 24 24
-13 -14 -14 -13 -12 -12 -12 -13 -14 -15 -14 -12 -12 -10 -11 -11 -9 -9 -8 -8 -7 -7 -7 -6 -5 -5 -4 -3 -2 -2 -1 1 2 2 3 4 5 6 7 8 11 11 11 12 13 13 14 15 15 17 16 17 18 18 19 20 21 21 21 22 22 22 22 22 22 22 23 24 25 26 25 24 24 25 25 26 26 24 24 25 26 26 24 23 23
-13 -14 -12 -13 -12 -12 -13 -13 -14 -14 -13 -12 -12 -11 -10 -9 -9 -9 -8 -7 -7 -7 -7 -7 -6 -5 -4 -3 -3 -3 -2 -1 1 1 2 3 4 5 7 9 10 10 11 12 12 13 13 14 15 16 16 16 16 17 18 19 19 19 20 20 20 19 21 21 20 20 21 21 22 24 25 25 25 25 25 25 26 27 25 24 24 24 23 23 24
-13 -14 -12 -13 -13 -13 -13 -14 -14 -13 -13 -12 -11 -11 -10 -10 -9 -8 -8 -8 -8 -8 -8 -7 -6 -5 -5 -4 -4 -3 -2 -2 -1 1 1 2 3 5 7 8 9 10 11 12 13 13 13 14 14 15 15 14 15 16 17 18 19 20 19 19 19 19 19 19 19 20 20 21 21 23 23 23 23 23 23 23 23 24 26 26 26 26 25 26 26
-13 -13 -13 -13 -13 -13 -14 -14 -14 -13 -13 -12 -12 -11 -10 -10 -9 -8 -8 -8 -9 -8 -8 -7 -6 -5 -6 -5 -4 -3 -3 -2 -1 -0 1 2 3 5 7 9 11 11 13 14 14 13 15 15 15 15 15 14 14 15 17 21 21 21 20 19 19 19 19 19 20 21 20 19 19 20 20 20 20 20 21 21 21 22 23 24 26 26 26 28 28
-13 -12 -13 -13 -13 -14 -14 -14 -14 -13 -13 -12 -11 -11 -10 -10 -9 -8 -8 -9 -9 -9 -9 -8 -6 -6 -5 -5 -5 -4 -3 -3 -2 -1 0 2 6 10 10 9 10 14 16 16 17 14 16 16 15 15 16 15 16 17 21 21 21 21 21 20 21 21 20 19 20 19 18 16 16 16 17 17 18 20 20 20 20 20 21 22 23 24 24 24 24
-13 -13 -14 -14 -14 -14 -14 -14 -14 -14 -13 -13 -12 -11 -11 -10 -9 -8 -8 -9 -9 -10 -10 -9 -8 -7 -6 -6 -5 -5 -3 -2 -2 -1 -0 1 1 3 10 13 13 14 15 15 16 17 18 18 16 14 15 17 19 19 20 21 21 20 20 20 20 20 19 19 18 15 13 12 13 13 13 14 15 16 17 17 18 20 20 20 20 21 21 22 22